sat.trackr.live / text

‹ back to catalog

STARLINK-6172

NORAD 57130 · 2023-090AF

PAYLOAD ACTIVE UNKNOWN

§ Identity

Operator
Country
US
Launch date
2023-06-23
Launch site
AFETR
Launch vehicle
Mass (kg)
RCS (m²)

Purposes: comms

External: N2YO · Heavens-Above · Gunter

§ Orbital elements

Epoch: 2026-09-20T11:10:43.088736Z

Period
94.27 min
Inclination
43.0024°
Eccentricity
0.0001722
Mean motion
15.27572603 rev/d
Perigee alt
481.9 km
Apogee alt
484.3 km
Semi-major
6,861.2 km
B*
3.1229e-6
RAAN
261.3142°
Arg perigee
277.2880°
Mean anomaly
82.7776°
Rev number
17,993

§ Raw data

STARLINK-61721 57130U 23090AF  26263.46577649 -.00000176  00000+0  31229-5 0  99932 57130  43.0024 261.3142 0001722 277.2880  82.7776 15.27572603179930

JSON: /api/v1/satellites/57130 · /tle

For live sub-satellite position, see the globe view (requires WebGL).

§ Visibility from observer

Set your observer location to see the next 7 days of passes ≥ 10°. The values pass through the URL so the page stays shareable.

No JS? Fill the form by hand. The geolocation button needs JavaScript.